[Iaude] MPEC B165: 2024 BQ3 [a=1.39,e=0.35,i=6.4,H=26.6]

mpec at marsden.cfa.harvard.edu mpec at marsden.cfa.harvard.edu
Tue Jan 30 22:12:17 EST 2024


M.P.E.C. 2024-B165                             Issued 2024 January 31, 03:10 UT

     The Minor Planet Electronic Circulars contain information on unusual
         minor planets, routine data on comets and natural satellites,
         and occasional editorial announcements.  They are published
    on behalf of Division F of the International Astronomical Union by the
          Minor Planet Center, Smithsonian Astrophysical Observatory,
                          Cambridge, MA 02138, U.S.A.
			  
             Prepared using the Tamkin Foundation Computer Network

                              MPC at CFA.HARVARD.EDU
            URL https://www.minorplanetcenter.net/    ISSN 1523-6714

                                    2024 BQ3                                    


Observations:
     K24B03Q  C2024 01 28.46398007 54 53.369+33 01 46.65         19.28iXEB165F52
     K24B03Q  C2024 01 28.48735207 55 28.874+33 04 19.11         19.22iXEB165F52
     K24B03Q  C2024 01 28.49899507 55 46.555+33 05 32.73         19.05iXEB165F52
     K24B03Q*1C2024 01 30.23953608 33 38.549+35 14 10.82         20.06GVEB165G96
     K24B03Q 1C2024 01 30.24523008 33 43.542+35 14 28.39         20.50GVEB165G96
     K24B03Q 1C2024 01 30.25091308 33 48.546+35 14 45.64         19.76GVEB165G96
     K24B03Q 1C2024 01 30.25659908 33 53.579+35 15 02.48         19.76GVEB165G96
     K24B03Q 1C2024 01 30.33242108 34 59.149+35 18 30.64         20.10GVEB165G96
     K24B03Q 1C2024 01 30.33295108 34 59.563+35 18 32.18         19.82GVEB165G96
     K24B03Q 1C2024 01 30.33348208 35 00.002+35 18 33.52         19.97GVEB165G96
     K24B03Q 1C2024 01 30.33401308 35 00.478+35 18 34.56         20.10GVEB165G96
     K24B03Q KB2024 01 30.81603 08 42 32.20 +35 35 58.7                XEB165M45
     K24B03Q KB2024 01 30.82069 08 42 35.90 +35 36 11.1          19.6 GXEB165M45
     K24B03Q KB2024 01 30.82522 08 42 39.42 +35 36 22.6          19.9 GXEB165M45
     K24B03Q KB2024 01 30.96156308 44 28.60 +35 41 20.7          20.3 GXEB165I93
     K24B03Q KB2024 01 30.96448508 44 30.74 +35 41 26.2          20.4 GXEB165I93
     K24B03Q KB2024 01 30.96739608 44 32.84 +35 41 33.0          20.4 GXEB165I93
     K24B03Q KB2024 01 30.99922008 44 56.32 +35 42 40.4          19.7 GXEB165958
     K24B03Q KB2024 01 31.00452508 45 00.04 +35 42 50.9          20.5 GXEB165958
     K24B03Q KB2024 01 31.00983008 45 03.94 +35 43 01.0          19.8 GXEB165958

Observer details:
958 Observatoire de Dax.  Observer P. Dupouy.  0.50-m f/4.5 Reflector + CMO.
F52 Pan-STARRS 2, Haleakala.  Observers J. Herman, T. Lowe, P. Minguez, A.
    Schultz, I. Smith.  Measurers K. Chambers, T. de Boer, J. Fairlamb, H.
    Gao, M. Huber, C.-C. Lin, E. Magnier, Y. Ramanjooloo, R. Wainscoat, R.
    Weryk.  1.8-m Ritchey-Chretien + CCD.
G96 Mt. Lemmon Survey.  Observer D. Rankin.  Measurers T. Beuden, V. F.
    Carvajal, D. Fay, J. B. Fazekas, D. C. Fuls, A. R. Gibbs, A. D. Grauer, H.
    Groeller, J. K. Hogan, R. A. Kowalski, S. M. Larson, G. J. Leonard, D.
    Rankin, R. L. Seaman, F. C. Shelly, K. W. Wierzchos.  1.5-m reflector +
    10K CCD.
I93 St Pardon de Conques.  Observer F. Losse.  0.40-m f/3.7 reflector + CMO.
M45 Starhopper Observatory, Sfantu Gheorghe.  Observer F. Ursache.  0.41-m
    f/7.5 reflector + CMO.

Orbital elements:
2024 BQ3                                                 Earth MOID = 0.0055 AU
Epoch 2023 Sept. 13.0 TT = JDT 2460200.5                Veres                   
M 303.24051              (2000.0)            P               Q                  
n   0.60108218     Peri.  309.11060     +0.27075341     -0.95824768             
a   1.3905293      Node   124.94126     +0.91421517     +0.22604080             
e   0.3514271      Incl.    6.44009     +0.30150158     +0.17511980             
P   1.64           H   26.68          G   0.15           U   7                  
Residuals in seconds of arc
240128 F52  0.3+  0.1+    240130 G96  0.5+  0.1-    240130 I93  0.3+  0.2+
240128 F52  0.1-  0.1+    240130 G96  0.0   0.1+    240130 I93  0.3+  0.5-
240128 F52  0.3-  0.2-    240130 G96  0.1-  0.1+    240130 I93  0.2-  0.2+
240130 G96  0.6+  0.1-    240130 G96  0.1+  0.2-    240130 958  0.9+  0.1-
240130 G96  0.0   0.0     240130 M45  0.9-  0.6-    240131 958  0.5-  0.1+
240130 G96  0.1-  0.1-    240130 M45  0.3-  0.1+    240131 958  0.4+  0.1+
240130 G96  0.3+  0.3-    240130 M45  0.6-  0.4+

Ephemeris:
2024 BQ3                 a,e,i = 1.39, 0.35, 6                   q = 0.9019
Date    TT    R. A. (2000) Decl.     Delta      r    Elong.  Phase     V
2024 01 01    22 42 12.9 -36 34 34   0.1177  0.9172    52.9   121.2    26.8
...
2024 01 16    23 43 17.7 -34 36 30   0.04346 0.9582    53.0   124.9    25.0
...
2024 01 24    03 49 42.4 -02 17 34   0.01243 0.9886   109.8    69.5    19.6
...
2024 01 30    08 29 23.3 +35 02 27   0.03078 1.0144   162.5    17.0    20.1
2024 01 31    08 44 55.4 +35 43 15   0.03547 1.0189   161.9    17.5    20.4
2024 02 01    08 56 57.6 +36 08 35   0.04026 1.0234   161.2    18.0    20.7
...
2024 02 07    09 33 56.2 +36 44 36   0.07027 1.0519   158.6    20.0    22.0
...
2024 02 15    09 51 02.0 +36 12 03   0.1129  1.0922   156.8    20.8    23.2
...
2024 03 01    10 02 58.4 +34 02 34   0.2019  1.1724   151.6    23.7    24.7

M. P. C. Staff               (C) Copyright 2024 MPC           M.P.E.C. 2024-B165





More information about the Iaude mailing list